QPF
0.00 0.00 0.00 0.00 0.00 0.00 0.00 0.00 0.00 0.00 0.00 0.00 0.00 0.00 0.00 0.00 0.00 0.00 0.00 0.00 0.00 0.00
0.00 0.00 0.00 0.00 0.00 0.00 0.00 0.00 0.00 0.00 0.00 0.00 0.00 0.00 0.00 0.00 0.00 0.00 0.00 0.00 0.00 0.00
0.00 0.00 0.00 0.00 0.00 0.00 0.00 0.00 0.00 0.00 0.00 0.00 0.00 0.00 0.00 0.00 0.00 0.00 0.00 0.00 0.00 0.00
0.00 0.00 0.00 0.00 0.00 0.00 0.00 0.00 0.00 0.00 0.00 0.00 0.00 0.00 0.00 0.00 0.00 0.00 0.00 0.00 0.00 0.00
0.00 0.00 0.00 0.00 0.00 0.00 0.00 0.00 0.00 0.00 0.00 0.00 0.00 0.00 0.00 0.00 0.00 0.00 0.00 0.00 0.00 0.00
0.00 0.00 0.00 0.00 0.00 0.00 0.00 0.00 0.00 0.00 0.00 0.00 0.00 0.00 0.00 0.00 0.00 0.00 0.00 0.00 0.00 0.00
0.00 0.00 0.00 0.00 0.00 0.00 0.00 0.00 0.00 0.00 0.00 0.00 0.00 0.00 0.00 0.00 0.00 0.00 0.00 0.00 0.00 0.00
0.00 0.00 0.00 0.00 0.00 0.00 0.00 0.00 0.00 0.00 0.00 0.00 0.00 0.00 0.00 0.00 0.00 0.00 0.00 0.00 0.00 0.00
0.00 0.00 0.00 0.00 0.00 0.00 0.00 0.00 0.00 0.00 0.00 0.00 0.00 0.00 0.00 0.00 0.00 0.00 0.00 0.00 0.00 0.00
0.00 0.00 0.00 0.00 0.00 0.00 0.00 0.00 0.00 0.00 0.00 0.00 0.00 0.00 0.00 0.00 0.00 0.00 0.00 0.00 0.00 0.00
0.00 0.00 0.00 0.00 0.00 0.00 0.00 0.00 0.00 0.00 0.00 0.00 0.00 0.00 0.00 0.00 0.00 0.00 0.00 0.00 0.00 0.00
0.00 0.00 0.00 0.00 0.00 0.00 0.00 0.00 0.00 0.00 0.00 0.00 0.00 0.00 0.00 0.00 0.00 0.00 0.00 0.00 0.00 0.00
0.00 0.00 0.00 0.00 0.00 0.00 0.00 0.00 0.00 0.00 0.00 0.00 0.00 0.00 0.00 0.00 0.00 0.00 0.00 0.00 0.00 0.00
0.00 0.00 0.00 0.00 0.00 0.00 0.00 0.00 0.00 0.00 0.00 0.00 0.00 0.00 0.00 0.00 0.00 0.00 0.00 0.00 0.00 0.00
MSLP
1018.58 1018.89 1019.34 1019.88 1020.61 1021.32 1021.83 1022.43 1022.86 1023.02 1023.24 1023.26 1023.21 1023.28 1023.36 1023.21 1023.15 1023.11 1023.11 1023.14 1023.61 1023.73
1018.74 1019.06 1019.55 1020.15 1020.87 1021.49 1022.20 1022.69 1023.11 1023.16 1023.27 1023.90 1023.84 1023.66 1023.65 1023.62 1023.40 1023.41 1023.56 1023.55 1023.76 1024.07
1018.97 1019.45 1019.92 1020.43 1021.08 1021.68 1022.45 1022.91 1023.47 1023.41 1023.53 1024.00 1024.12 1024.02 1023.94 1023.86 1023.81 1023.54 1024.03 1023.98 1024.16 1024.29
1019.11 1019.73 1020.43 1020.85 1021.31 1021.88 1022.47 1022.94 1023.38 1023.40 1023.66 1023.91 1024.25 1024.21 1024.68 1024.46 1024.36 1024.29 1024.41 1024.23 1024.30 1024.63
1019.22 1019.93 1020.98 1021.32 1021.51 1022.17 1022.73 1023.10 1023.45 1023.44 1023.75 1024.08 1024.40 1024.64 1024.97 1025.11 1024.78 1024.84 1024.60 1024.54 1024.29 1024.40
1019.36 1020.32 1021.51 1021.68 1021.37 1022.50 1022.66 1023.69 1023.59 1023.69 1024.02 1024.26 1024.80 1025.21 1025.21 1025.37 1025.34 1025.25 1024.97 1025.10 1025.25 1025.59
1019.70 1020.58 1021.31 1021.36 1022.17 1022.70 1022.61 1023.70 1023.66 1024.27 1024.62 1024.81 1025.25 1025.28 1025.07 1025.35 1025.59 1025.29 1025.38 1025.44 1025.87 1026.53
1020.37 1020.82 1021.10 1021.76 1022.53 1022.51 1023.32 1023.49 1024.04 1024.57 1024.93 1025.25 1025.82 1025.64 1025.88 1025.88 1025.31 1025.51 1025.37 1026.40 1026.78 1027.69
1020.75 1020.93 1021.49 1022.12 1022.89 1023.00 1023.64 1023.78 1024.22 1024.74 1025.37 1026.08 1026.56 1027.45 1027.22 1026.07 1025.90 1025.68 1026.00 1026.41 1027.16 1027.78
1020.42 1021.13 1021.97 1022.99 1023.04 1023.58 1023.85 1024.30 1024.48 1025.16 1025.62 1026.38 1027.14 1028.01 1027.67 1026.80 1026.33 1027.37 1027.13 1027.60 1027.59 1028.34
1020.40 1021.60 1022.43 1023.34 1023.87 1023.96 1024.49 1025.11 1025.60 1025.96 1026.20 1026.91 1028.15 1028.69 1028.24 1027.36 1027.42 1028.11 1028.81 1028.75 1028.98 1029.69
1020.66 1021.52 1022.55 1023.43 1023.85 1024.51 1025.19 1025.66 1025.88 1026.68 1026.75 1027.54 1028.53 1029.10 1028.44 1027.42 1028.14 1028.98 1029.58 1029.60 1029.99 1030.42
1020.97 1022.17 1022.98 1023.65 1024.04 1024.59 1025.24 1025.79 1026.36 1026.98 1027.40 1028.18 1028.80 1029.11 1029.14 1028.20 1028.35 1029.19 1030.08 1030.06 1030.71 1031.36
1021.24 1022.37 1023.16 1023.81 1024.80 1024.77 1025.35 1025.85 1026.52 1026.99 1027.77 1028.31 1028.77 1029.69 1029.61 1029.02 1028.80 1029.48 1030.09 1030.20 1030.84 1031.57
Thickness
5554 5552 5547 5542 5536 5529 5524 5517 5513 5510 5506 5504 5503 5501 5498 5496 5494 5491 5488 5485 5475 5469
5541 5538 5534 5528 5520 5514 5508 5502 5498 5496 5494 5487 5486 5485 5482 5480 5480 5477 5472 5468 5460 5450
5526 5521 5517 5512 5506 5500 5492 5488 5483 5483 5480 5474 5471 5470 5469 5467 5466 5465 5456 5450 5442 5433
5509 5505 5499 5495 5491 5485 5481 5477 5472 5471 5467 5463 5459 5457 5451 5451 5449 5445 5439 5434 5428 5418
5493 5488 5480 5477 5477 5472 5466 5462 5460 5459 5456 5451 5447 5443 5438 5434 5433 5427 5425 5420 5416 5408
5478 5471 5463 5464 5466 5456 5453 5446 5448 5446 5443 5439 5433 5427 5424 5420 5415 5412 5410 5403 5396 5385
5462 5457 5453 5453 5446 5440 5442 5434 5436 5431 5426 5424 5418 5415 5414 5408 5403 5401 5395 5390 5380 5369
5445 5442 5443 5437 5431 5431 5425 5426 5422 5416 5412 5407 5400 5401 5396 5392 5394 5388 5385 5371 5364 5353
5432 5431 5427 5422 5417 5416 5412 5412 5409 5404 5398 5391 5386 5379 5376 5378 5377 5377 5371 5364 5354 5345
5423 5418 5412 5405 5404 5400 5399 5397 5395 5390 5387 5380 5373 5364 5363 5366 5365 5355 5353 5348 5346 5335
5410 5401 5394 5388 5384 5386 5383 5379 5375 5373 5371 5366 5355 5348 5348 5353 5349 5340 5333 5332 5329 5320
5395 5389 5384 5379 5377 5373 5367 5364 5364 5357 5357 5350 5340 5334 5337 5343 5334 5326 5320 5319 5315 5309
5383 5375 5370 5367 5366 5363 5358 5354 5350 5344 5341 5333 5328 5325 5322 5327 5325 5317 5308 5308 5302 5297
5372 5365 5360 5357 5349 5349 5347 5344 5339 5335 5327 5323 5319 5310 5310 5312 5312 5307 5301 5301 5295 5289